| time (UTC) | temp F | wind direction | speed MPH | gust MPH | rain 1hr in | rain 24hr in | rain mn in | humidity % | barometer mb |
| 20260508153525 | 66 | 136 | 5.0 | 13.0 | 0.00 | 0.00 | 0.00 | 68 | 1011.5 |
| 20260508153025 | 66 | 138 | 5.0 | 12.0 | 0.00 | 0.00 | 0.00 | 67 | 1011.7 |
| 20260508152625 | 66 | 186 | 3.0 | 11.0 | 0.00 | 0.00 | 0.00 | 69 | 1011.6 |
| 20260508152028 | 66 | 138 | 5.0 | 11.0 | 0.00 | 0.00 | 0.00 | 70 | 1011.7 |
| 20260508151524 | 66 | 194 | 3.0 | 10.0 | 0.00 | 0.00 | 0.00 | 71 | 1011.5 |
| 20260508151024 | 66 | 115 | 3.0 | 10.0 | 0.00 | 0.00 | 0.00 | 71 | 1011.7 |
| 20260508150524 | 65 | 143 | 5.0 | 10.0 | 0.00 | 0.00 | 0.00 | 70 | 1011.8 |
| 20260508150025 | 66 | 167 | 5.0 | 11.0 | 0.00 | 0.00 | 0.00 | 70 | 1012.0 |
| 20260508145524 | 66 | 171 | 3.0 | 12.0 | 0.00 | 0.00 | 0.00 | 70 | 1012.0 |
| 20260508145023 | 66 | 132 | 5.0 | 12.0 | 0.00 | 0.00 | 0.00 | 69 | 1012.2 |
| 20260508144523 | 66 | 145 | 5.0 | 11.0 | 0.00 | 0.00 | 0.00 | 69 | 1012.2 |
| 20260508144023 | 66 | 107 | 7.0 | 12.0 | 0.00 | 0.00 | 0.00 | 68 | 1012.2 |
| 20260508143523 | 66 | 123 | 4.0 | 13.0 | 0.00 | 0.00 | 0.00 | 67 | 1012.4 |
| 20260508143022 | 66 | 142 | 6.0 | 13.0 | 0.00 | 0.00 | 0.00 | 67 | 1012.4 |
| 20260508142522 | 66 | 136 | 7.0 | 12.0 | 0.00 | 0.00 | 0.00 | 67 | 1012.4 |
| 20260508142022 | 66 | 188 | 7.0 | 12.0 | 0.00 | 0.00 | 0.00 | 67 | 1012.5 |
| 20260508141523 | 66 | 197 | 6.0 | 13.0 | 0.00 | 0.00 | 0.00 | 66 | 1012.4 |
| 20260508141023 | 66 | 172 | 5.0 | 12.0 | 0.00 | 0.00 | 0.00 | 67 | 1012.4 |
| 20260508140522 | 67 | 134 | 5.0 | 12.0 | 0.00 | 0.00 | 0.00 | 67 | 1012.5 |
| 20260508140021 | 67 | 157 | 5.0 | 13.0 | 0.00 | 0.00 | 0.00 | 67 | 1012.5 |
| 20260508135524 | 67 | 132 | 7.0 | 13.0 | 0.00 | 0.00 | 0.00 | 70 | 1012.6 |
| 20260508135020 | 67 | 115 | 8.0 | 14.0 | 0.00 | 0.00 | 0.00 | 71 | 1012.7 |
| 20260508134519 | 66 | 44 | 5.0 | 10.0 | 0.00 | 0.00 | 0.00 | 72 | 1012.8 |
| 20260508134019 | 65 | 165 | 5.0 | 13.0 | 0.00 | 0.00 | 0.00 | 72 | 1012.7 |
| 20260508133524 | 66 | 101 | 9.0 | 13.0 | 0.00 | 0.00 | 0.00 | 71 | 1012.7 |
| 20260508133019 | 66 | 144 | 3.0 | 12.0 | 0.00 | 0.00 | 0.00 | 72 | 1012.7 |
| 20260508132518 | 66 | 121 | 7.0 | 13.0 | 0.00 | 0.00 | 0.00 | 70 | 1012.9 |
| 20260508132019 | 66 | 115 | 8.0 | 13.0 | 0.00 | 0.00 | 0.00 | 70 | 1012.8 |
| 20260508131519 | 66 | 134 | 5.0 | 12.0 | 0.00 | 0.00 | 0.00 | 68 | 1012.8 |
| 20260508131018 | 66 | 155 | 6.0 | 15.0 | 0.00 | 0.00 | 0.00 | 68 | 1012.8 |
| 20260508130519 | 66 | 142 | 7.0 | 15.0 | 0.00 | 0.00 | 0.00 | 68 | 1012.8 |
| 20260508130020 | 67 | 148 | 6.0 | 10.0 | 0.00 | 0.00 | 0.00 | 70 | 1012.8 |
| 20260508125515 | 66 | 107 | 4.0 | 9.0 | 0.00 | 0.00 | 0.00 | 71 | 1012.7 |
| 20260508125014 | 65 | 124 | 5.0 | 15.0 | 0.00 | 0.00 | 0.00 | 71 | 1012.8 |
| 20260508124514 | 65 | 117 | 6.0 | 15.0 | 0.00 | 0.00 | 0.00 | 74 | 1012.7 |
| 20260508124014 | 65 | 150 | 6.0 | 14.0 | 0.00 | 0.00 | 0.00 | 72 | 1012.7 |
| 20260508123514 | 66 | 121 | 7.0 | 15.0 | 0.00 | 0.00 | 0.00 | 74 | 1012.7 |
| 20260508123013 | 65 | 178 | 5.0 | 15.0 | 0.00 | 0.00 | 0.00 | 75 | 1012.7 |
| 20260508122512 | 65 | 129 | 6.0 | 13.0 | 0.00 | 0.00 | 0.00 | 74 | 1012.7 |
| 20260508122013 | 65 | 121 | 8.0 | 15.0 | 0.00 | 0.00 | 0.00 | 75 | 1012.6 |
| 20260508121512 | 65 | 120 | 5.0 | 15.0 | 0.00 | 0.00 | 0.00 | 75 | 1012.7 |
| 20260508121012 | 65 | 98 | 6.0 | 14.0 | 0.00 | 0.00 | 0.00 | 73 | 1012.8 |
| 20260508120511 | 66 | 114 | 7.0 | 14.0 | 0.00 | 0.00 | 0.00 | 72 | 1012.8 |
| 20260508120026 | 66 | 129 | 6.0 | 15.0 | 0.00 | 0.00 | 0.00 | 72 | 1012.9 |
| 20260508115511 | 66 | 169 | 7.0 | 15.0 | 0.00 | 0.00 | 0.00 | 71 | 1012.9 |
| 20260508115009 | 66 | 136 | 8.0 | 15.0 | 0.00 | 0.00 | 0.00 | 70 | 1012.8 |
| 20260508114511 | 66 | 159 | 5.0 | 15.0 | 0.00 | 0.00 | 0.00 | 71 | 1012.8 |
| 20260508114009 | 66 | 144 | 6.0 | 15.0 | 0.00 | 0.00 | 0.00 | 73 | 1012.7 |
| 20260508113509 | 66 | 134 | 6.0 | 15.0 | 0.00 | 0.00 | 0.00 | 73 | 1012.8 |
| 20260508113013 | 66 | 155 | 6.0 | 11.0 | 0.00 | 0.00 | 0.00 | 73 | 1012.9 |
| 20260508112511 | 65 | 132 | 6.0 | 15.0 | 0.00 | 0.00 | 0.00 | 74 | 1012.8 |
| 20260508112007 | 65 | 128 | 6.0 | 15.0 | 0.00 | 0.00 | 0.00 | 75 | 1012.9 |
| 20260508111507 | 65 | 129 | 8.0 | 14.0 | 0.00 | 0.00 | 0.00 | 74 | 1012.8 |
| 20260508111005 | 65 | 143 | 5.0 | 11.0 | 0.00 | 0.00 | 0.00 | 75 | 1012.8 |
| 20260508110504 | 65 | 163 | 7.0 | 14.0 | 0.00 | 0.00 | 0.00 | 75 | 1012.9 |
| 20260508110004 | 65 | 117 | 8.0 | 14.0 | 0.00 | 0.00 | 0.00 | 75 | 1012.9 |
| 20260508105503 | 65 | 137 | 5.0 | 11.0 | 0.00 | 0.00 | 0.00 | 76 | 1012.8 |
| 20260508105005 | 64 | 166 | 6.0 | 15.0 | 0.00 | 0.00 | 0.00 | 75 | 1013.1 |
| 20260508104502 | 64 | 96 | 9.0 | 16.0 | 0.00 | 0.00 | 0.00 | 77 | 1013.1 |
| 20260508104002 | 64 | 106 | 10.0 | 16.0 | 0.00 | 0.00 | 0.00 | 76 | 1013.2 |
| 20260508103502 | 64 | 104 | 5.0 | 17.0 | 0.00 | 0.00 | 0.00 | 77 | 1013.6 |
| 20260508103100 | 64 | 103 | 8.0 | 17.0 | 0.00 | 0.00 | 0.00 | 77 | 1013.5 |
| 20260508102559 | 64 | 115 | 9.0 | 14.0 | 0.00 | 0.00 | 0.00 | 77 | 1013.4 |
| 20260508102101 | 64 | 130 | 6.0 | 15.0 | 0.00 | 0.00 | 0.00 | 78 | 1013.4 |
| 20260508101559 | 64 | 215 | 8.0 | 17.0 | 0.00 | 0.00 | 0.00 | 77 | 1013.3 |
| 20260508101058 | 64 | 143 | 8.0 | 18.0 | 0.00 | 0.00 | 0.00 | 78 | 1013.4 |
| 20260508100600 | 64 | 109 | 10.0 | 18.0 | 0.00 | 0.00 | 0.00 | 77 | 1013.2 |
| 20260508100057 | 64 | 128 | 10.0 | 18.0 | 0.00 | 0.00 | 0.00 | 78 | 1013.1 |
| 20260508095555 | 64 | 105 | 6.0 | 15.0 | 0.00 | 0.00 | 0.00 | 79 | 1013.1 |
| 20260508095054 | 64 | 159 | 8.0 | 15.0 | 0.00 | 0.00 | 0.00 | 80 | 1013.1 |
| 20260508094600 | 63 | 104 | 7.0 | 16.0 | 0.00 | 0.00 | 0.00 | 81 | 1013.0 |
| 20260508094053 | 63 | 111 | 11.0 | 16.0 | 0.00 | 0.00 | 0.00 | 81 | 1013.1 |
| 20260508093553 | 63 | 138 | 7.0 | 16.0 | 0.00 | 0.00 | 0.00 | 83 | 1013.0 |
| 20260508093059 | 62 | 115 | 10.0 | 16.0 | 0.00 | 0.00 | 0.00 | 83 | 1013.2 |
| 20260508092553 | 62 | 122 | 12.0 | 18.0 | 0.00 | 0.00 | 0.00 | 83 | 1013.1 |
| 20260508092051 | 62 | 120 | 11.0 | 19.0 | 0.00 | 0.00 | 0.00 | 83 | 1013.1 |
| 20260508091604 | 62 | 111 | 11.0 | 18.0 | 0.00 | 0.00 | 0.00 | 83 | 1012.9 |
| 20260508091051 | 63 | 111 | 10.0 | 18.0 | 0.00 | 0.00 | 0.00 | 84 | 1013.0 |
| 20260508090551 | 62 | 161 | 10.0 | 18.0 | 0.00 | 0.00 | 0.00 | 84 | 1012.9 |
| 20260508090057 | 62 | 130 | 10.0 | 20.0 | 0.00 | 0.00 | 0.00 | 84 | 1012.9 |
| 20260508085550 | 62 | 129 | 11.0 | 20.0 | 0.00 | 0.00 | 0.00 | 83 | 1012.8 |
| 20260508085048 | 63 | 140 | 10.0 | 19.0 | 0.00 | 0.00 | 0.00 | 82 | 1012.8 |
| 20260508084547 | 64 | 128 | 11.0 | 19.0 | 0.00 | 0.00 | 0.00 | 80 | 1012.9 |
| 20260508084046 | 64 | 138 | 10.0 | 19.0 | 0.00 | 0.00 | 0.00 | 76 | 1012.8 |
| 20260508083546 | 64 | 117 | 11.0 | 18.0 | 0.00 | 0.00 | 0.00 | 75 | 1013.0 |
| 20260508083050 | 64 | 126 | 11.0 | 15.0 | 0.00 | 0.00 | 0.00 | 73 | 1012.9 |
| 20260508082546 | 65 | 100 | 11.0 | 15.0 | 0.00 | 0.00 | 0.00 | 73 | 1012.8 |
| 20260508082042 | 64 | 87 | 6.0 | 17.0 | 0.00 | 0.00 | 0.00 | 73 | 1012.6 |
| 20260508081547 | 64 | 123 | 10.0 | 17.0 | 0.00 | 0.00 | 0.00 | 71 | 1012.7 |
| 20260508081042 | 64 | 111 | 9.0 | 15.0 | 0.00 | 0.00 | 0.00 | 70 | 1012.5 |
| 20260508080540 | 64 | 159 | 4.0 | 15.0 | 0.00 | 0.00 | 0.00 | 72 | 1012.5 |
| 20260508080043 | 64 | 130 | 5.0 | 14.0 | 0.00 | 0.00 | 0.00 | 71 | 1012.4 |
| 20260508075540 | 64 | 129 | 7.0 | 15.0 | 0.00 | 0.00 | 0.00 | 73 | 1012.4 |
| 20260508075034 | 63 | 88 | 9.0 | 15.0 | 0.00 | 0.00 | 0.00 | 74 | 1012.6 |
| 20260508074533 | 63 | 110 | 8.0 | 12.0 | 0.00 | 0.00 | 0.00 | 76 | 1012.5 |
| 20260508074032 | 62 | 127 | 5.0 | 11.0 | 0.00 | 0.00 | 0.00 | 77 | 1012.6 |
| 20260508073532 | 62 | 25 | 7.0 | 11.0 | 0.00 | 0.00 | 0.00 | 76 | 1012.7 |
| 20260508073034 | 62 | 92 | 4.0 | 13.0 | 0.00 | 0.00 | 0.00 | 76 | 1012.9 |
| 20260508072531 | 62 | 136 | 5.0 | 13.0 | 0.00 | 0.00 | 0.00 | 77 | 1013.1 |
| 20260508072030 | 62 | 130 | 3.0 | 10.0 | 0.00 | 0.00 | 0.00 | 77 | 1013.1 |
| 20260508071530 | 62 | 113 | 2.0 | 5.0 | 0.00 | 0.00 | 0.00 | 77 | 1013.0 |
| 20260508071032 | 62 | 151 | 0.0 | 5.0 | 0.00 | 0.00 | 0.00 | 76 | 1012.9 |
| 20260508070531 | 62 | 124 | 1.0 | 3.0 | 0.00 | 0.00 | 0.00 | 76 | 1013.0 |
| 20260508070030 | 62 | 213 | 0.0 | 2.0 | 0.00 | 0.00 | 0.00 | 75 | 1012.9 |
| 20260508065529 | 61 | 213 | 0.0 | 4.0 | 0.00 | 0.00 | 0.00 | 75 | 1012.8 |
| 20260508065025 | 61 | 278 | 1.0 | 4.0 | 0.00 | 0.00 | 0.00 | 75 | 1012.8 |
| 20260508064528 | 61 | 17 | 2.0 | 4.0 | 0.00 | 0.00 | 0.00 | 75 | 1012.6 |
| 20260508064026 | 60 | 16 | 0.0 | 4.0 | 0.00 | 0.00 | 0.00 | 76 | 1012.6 |
| 20260508063524 | 59 | 16 | 1.0 | 5.0 | 0.00 | 0.00 | 0.00 | 77 | 1012.4 |
| 20260508063021 | 59 | 11 | 2.0 | 5.0 | 0.00 | 0.00 | 0.00 | 78 | 1012.3 |
| 20260508062522 | 58 | 331 | 2.0 | 4.0 | 0.00 | 0.00 | 0.00 | 78 | 1012.3 |
| 20260508062019 | 58 | 332 | 0.0 | 4.0 | 0.00 | 0.00 | 0.00 | 78 | 1012.3 |
| 20260508061518 | 58 | 332 | 1.0 | 4.0 | 0.00 | 0.00 | 0.00 | 78 | 1012.2 |
| 20260508061018 | 58 | 303 | 2.0 | 4.0 | 0.00 | 0.00 | 0.00 | 78 | 1012.0 |
| 20260508060521 | 57 | 319 | 1.0 | 4.0 | 0.00 | 0.00 | 0.00 | 78 | 1011.8 |
| 20260508060016 | 57 | 299 | 1.0 | 9.0 | 0.00 | 0.00 | 0.00 | 78 | 1011.5 |
| 20260508055515 | 57 | 5 | 4.0 | 9.0 | 0.00 | 0.00 | 0.00 | 78 | 1011.4 |
| 20260508055016 | 57 | 355 | 5.0 | 8.0 | 0.00 | 0.00 | 0.00 | 76 | 1011.4 |
| 20260508054515 | 57 | 360 | 4.0 | 6.0 | 0.00 | 0.00 | 0.00 | 77 | 1011.7 |
| 20260508054012 | 57 | 172 | 1.0 | 6.0 | 0.00 | 0.00 | 0.00 | 78 | 1011.8 |
| 20260508053515 | 57 | 171 | 1.0 | 6.0 | 0.00 | 0.00 | 0.00 | 79 | 1011.8 |
| 20260508053013 | 57 | 348 | 0.0 | 3.0 | 0.00 | 0.00 | 0.00 | 77 | 1011.8 |
| 20260508052511 | 57 | 348 | 1.0 | 4.0 | 0.00 | 0.00 | 0.00 | 76 | 1011.7 |
| 20260508052011 | 57 | 355 | 2.0 | 4.0 | 0.00 | 0.00 | 0.00 | 76 | 1011.4 |
| 20260508051523 | 57 | 337 | 1.0 | 5.0 | 0.00 | 0.00 | 0.00 | 76 | 1011.3 |
| 20260508051011 | 57 | 50 | 2.0 | 9.0 | 0.00 | 0.00 | 0.00 | 76 | 1011.3 |
| 20260508050511 | 57 | 360 | 6.0 | 9.0 | 0.00 | 0.00 | 0.00 | 75 | 1011.5 |
| 20260508050010 | 57 | 355 | 5.0 | 8.0 | 0.00 | 0.00 | 0.00 | 75 | 1011.4 |
| 20260508045509 | 57 | 19 | 5.0 | 8.0 | 0.00 | 0.00 | 0.00 | 75 | 1011.4 |
| 20260508045009 | 57 | 360 | 5.0 | 8.0 | 0.00 | 0.00 | 0.00 | 74 | 1011.5 |
| 20260508044511 | 57 | 355 | 4.0 | 6.0 | 0.00 | 0.00 | 0.00 | 74 | 1011.8 |
| 20260508044009 | 57 | 355 | 3.0 | 6.0 | 0.00 | 0.00 | 0.00 | 74 | 1011.9 |
| 20260508043509 | 57 | 332 | 3.0 | 5.0 | 0.00 | 0.00 | 0.00 | 74 | 1011.8 |
| 20260508043018 | 57 | 355 | 2.0 | 8.0 | 0.00 | 0.00 | 0.00 | 74 | 1012.0 |
| 20260508042510 | 57 | 333 | 2.0 | 8.0 | 0.00 | 0.00 | 0.00 | 74 | 1011.9 |
| 20260508042008 | 57 | 5 | 3.0 | 6.0 | 0.00 | 0.00 | 0.00 | 73 | 1011.8 |
| 20260508041514 | 57 | 5 | 2.0 | 4.0 | 0.00 | 0.00 | 0.00 | 74 | 1011.8 |
| 20260508041009 | 57 | 320 | 1.0 | 5.0 | 0.00 | 0.00 | 0.00 | 74 | 1011.7 |
| 20260508040508 | 57 | 340 | 1.0 | 8.0 | 0.00 | 0.00 | 0.00 | 74 | 1011.7 |
| 20260508040010 | 56 | 335 | 3.0 | 8.0 | 0.00 | 0.00 | 0.00 | 73 | 1011.6 |
| 20260508035512 | 56 | 336 | 1.0 | 3.0 | 0.00 | 0.00 | 0.00 | 74 | 1011.7 |
| 20260508035007 | 56 | 333 | 1.0 | 8.0 | 0.00 | 0.00 | 0.00 | 74 | 1011.7 |
| 20260508034508 | 56 | 331 | 2.0 | 9.0 | 0.00 | 0.00 | 0.00 | 74 | 1011.6 |
| 20260508034007 | 56 | 330 | 2.0 | 9.0 | 0.00 | 0.00 | 0.00 | 74 | 1011.5 |
| 20260508033507 | 56 | 5 | 3.0 | 8.0 | 0.00 | 0.00 | 0.00 | 74 | 1011.7 |
| 20260508033008 | 56 | 333 | 4.0 | 8.0 | 0.00 | 0.00 | 0.00 | 74 | 1011.7 |
| 20260508032507 | 56 | 340 | 4.0 | 8.0 | 0.00 | 0.00 | 0.00 | 75 | 1011.6 |
| 20260508032006 | 55 | 333 | 4.0 | 8.0 | 0.00 | 0.00 | 0.00 | 75 | 1011.6 |
| 20260508031507 | 55 | 341 | 4.0 | 8.0 | 0.00 | 0.00 | 0.00 | 75 | 1011.5 |
| 20260508031008 | 55 | 320 | 4.0 | 8.0 | 0.00 | 0.00 | 0.00 | 75 | 1011.6 |
| 20260508030505 | 55 | 344 | 4.0 | 6.0 | 0.00 | 0.00 | 0.00 | 75 | 1011.8 |
| 20260508030005 | 55 | 348 | 3.0 | 8.0 | 0.00 | 0.00 | 0.00 | 75 | 1011.9 |
| 20260508025510 | 56 | 343 | 4.0 | 8.0 | 0.00 | 0.00 | 0.00 | 76 | 1011.9 |
| 20260508025003 | 56 | 344 | 4.0 | 8.0 | 0.00 | 0.00 | 0.00 | 76 | 1011.9 |
| 20260508024503 | 56 | 350 | 3.0 | 8.0 | 0.00 | 0.00 | 0.00 | 76 | 1011.8 |
| 20260508024003 | 56 | 355 | 3.0 | 8.0 | 0.00 | 0.00 | 0.00 | 76 | 1011.8 |
| 20260508023502 | 56 | 333 | 4.0 | 8.0 | 0.00 | 0.00 | 0.00 | 76 | 1011.9 |
| 20260508023002 | 56 | 323 | 3.0 | 8.0 | 0.00 | 0.00 | 0.00 | 77 | 1011.7 |
| 20260508022502 | 56 | 324 | 3.0 | 6.0 | 0.00 | 0.00 | 0.00 | 77 | 1011.7 |
| 20260508022002 | 56 | 349 | 3.0 | 6.0 | 0.00 | 0.00 | 0.00 | 77 | 1011.7 |
| 20260508021501 | 56 | 321 | 3.0 | 8.0 | 0.00 | 0.00 | 0.00 | 77 | 1011.6 |
| 20260508021003 | 56 | 349 | 5.0 | 9.0 | 0.00 | 0.00 | 0.00 | 77 | 1011.6 |
| 20260508020501 | 56 | 355 | 5.0 | 9.0 | 0.00 | 0.00 | 0.00 | 77 | 1011.7 |
| 20260508015600 | 56 | 332 | 4.0 | 8.0 | 0.00 | 0.00 | 0.00 | 77 | 1011.6 |
| 20260508015059 | 56 | 360 | 5.0 | 9.0 | 0.00 | 0.00 | 0.00 | 77 | 1011.5 |
| 20260508014600 | 56 | 23 | 5.0 | 9.0 | 0.00 | 0.00 | 0.00 | 77 | 1011.4 |
| 20260508014058 | 56 | 355 | 3.0 | 8.0 | 0.00 | 0.00 | 0.00 | 77 | 1011.7 |
| 20260508013556 | 57 | 5 | 5.0 | 9.0 | 0.00 | 0.00 | 0.00 | 77 | 1011.7 |
| 20260508013055 | 57 | 360 | 5.0 | 9.0 | 0.00 | 0.00 | 0.00 | 77 | 1011.7 |
| 20260508012557 | 57 | 5 | 5.0 | 9.0 | 0.00 | 0.00 | 0.00 | 77 | 1011.8 |
| 20260508012056 | 57 | 5 | 6.0 | 10.0 | 0.00 | 0.00 | 0.00 | 77 | 1011.7 |
| 20260508011607 | 57 | 360 | 7.0 | 10.0 | 0.00 | 0.00 | 0.00 | 77 | 1011.8 |
| 20260508011054 | 57 | 5 | 6.0 | 10.0 | 0.00 | 0.00 | 0.00 | 77 | 1011.9 |
| 20260508010553 | 57 | 5 | 5.0 | 9.0 | 0.00 | 0.00 | 0.00 | 77 | 1012.0 |
| 20260508010052 | 57 | 5 | 6.0 | 10.0 | 0.00 | 0.00 | 0.00 | 77 | 1012.1 |
| 20260508005552 | 57 | 360 | 7.0 | 10.0 | 0.00 | 0.00 | 0.00 | 77 | 1012.2 |
| 20260508005052 | 57 | 13 | 7.0 | 10.0 | 0.00 | 0.00 | 0.00 | 77 | 1012.1 |
| 20260508004557 | 57 | 5 | 5.0 | 9.0 | 0.00 | 0.00 | 0.00 | 77 | 1012.3 |
| 20260508004052 | 57 | 5 | 5.0 | 10.0 | 0.00 | 0.00 | 0.00 | 77 | 1012.3 |
| 20260508003552 | 58 | 5 | 6.0 | 11.0 | 0.00 | 0.00 | 0.00 | 77 | 1012.2 |
| 20260508003050 | 57 | 355 | 8.0 | 11.0 | 0.00 | 0.00 | 0.00 | 77 | 1012.4 |
| 20260508002549 | 57 | 347 | 8.0 | 11.0 | 0.00 | 0.00 | 0.00 | 77 | 1012.5 |
| 20260508002049 | 57 | 9 | 8.0 | 10.0 | 0.00 | 0.00 | 0.00 | 78 | 1012.6 |
| 20260508001552 | 57 | 5 | 6.0 | 9.0 | 0.00 | 0.00 | 0.00 | 78 | 1012.7 |
| 20260508001047 | 57 | 5 | 6.0 | 10.0 | 0.00 | 0.00 | 0.00 | 78 | 1012.8 |
| 20260508000547 | 57 | 5 | 7.0 | 10.0 | 0.00 | 0.00 | 0.00 | 78 | 1012.8 |
| 20260508000048 | 57 | 20 | 6.0 | 9.0 | 0.00 | 0.00 | 0.00 | 78 | 1013.0 |
| 20260507235547 | 57 | 360 | 6.0 | 9.0 | 0.00 | 0.00 | 0.00 | 78 | 1013.0 |
| 20260507235048 | 57 | 355 | 6.0 | 8.0 | 0.00 | 0.00 | 0.00 | 78 | 1012.9 |
| 20260507234552 | 57 | 355 | 5.0 | 8.0 | 0.00 | 0.00 | 0.00 | 78 | 1013.0 |
| 20260507234045 | 57 | 18 | 5.0 | 9.0 | 0.00 | 0.00 | 0.00 | 77 | 1013.0 |
| 20260507233545 | 57 | 5 | 6.0 | 9.0 | 0.00 | 0.00 | 0.00 | 77 | 1013.1 |
| 20260507233045 | 57 | 355 | 7.0 | 9.0 | 0.00 | 0.00 | 0.00 | 77 | 1013.1 |
| 20260507232544 | 57 | 355 | 5.0 | 8.0 | 0.00 | 0.00 | 0.00 | 77 | 1013.2 |
| 20260507232045 | 57 | 350 | 4.0 | 9.0 | 0.00 | 0.00 | 0.00 | 77 | 1013.2 |
| 20260507231549 | 57 | 351 | 5.0 | 9.0 | 0.00 | 0.00 | 0.00 | 77 | 1013.2 |
| 20260507231046 | 57 | 355 | 5.0 | 9.0 | 0.00 | 0.00 | 0.00 | 77 | 1013.3 |
| 20260507230541 | 57 | 346 | 6.0 | 9.0 | 0.00 | 0.00 | 0.00 | 77 | 1013.4 |
| 20260507230040 | 57 | 348 | 5.0 | 8.0 | 0.00 | 0.00 | 0.00 | 76 | 1013.4 |
| 20260507225539 | 57 | 350 | 4.0 | 8.0 | 0.00 | 0.00 | 0.00 | 76 | 1013.4 |
| 20260507225037 | 57 | 348 | 3.0 | 5.0 | 0.00 | 0.00 | 0.00 | 76 | 1013.4 |
| 20260507224538 | 58 | 350 | 2.0 | 6.0 | 0.00 | 0.00 | 0.00 | 75 | 1013.3 |
| 20260507224035 | 58 | 346 | 3.0 | 6.0 | 0.00 | 0.00 | 0.00 | 75 | 1013.2 |
| 20260507223534 | 58 | 351 | 4.0 | 6.0 | 0.00 | 0.00 | 0.00 | 74 | 1013.3 |
| 20260507223034 | 58 | 340 | 3.0 | 6.0 | 0.00 | 0.00 | 0.00 | 74 | 1013.3 |
| 20260507222532 | 59 | 325 | 2.0 | 5.0 | 0.00 | 0.00 | 0.00 | 75 | 1013.3 |
| 20260507222032 | 59 | 43 | 0.0 | 0.0 | 0.00 | 0.00 | 0.00 | 75 | 1013.2 |
| 20260507221531 | 59 | 43 | 0.0 | 2.0 | 0.00 | 0.00 | 0.00 | 74 | 1013.1 |
| 20260507221033 | 59 | 43 | 0.0 | 3.0 | 0.00 | 0.00 | 0.00 | 74 | 1013.0 |
| 20260507220528 | 59 | 44 | 0.0 | 2.0 | 0.00 | 0.00 | 0.00 | 74 | 1012.9 |
| 20260507220029 | 59 | 44 | 0.0 | 3.0 | 0.00 | 0.00 | 0.00 | 73 | 1012.7 |
| 20260507215527 | 59 | 44 | 1.0 | 3.0 | 0.00 | 0.00 | 0.00 | 72 | 1012.8 |
| 20260507215025 | 59 | 27 | 0.0 | 2.0 | 0.00 | 0.00 | 0.00 | 71 | 1012.7 |
| 20260507214527 | 60 | 27 | 0.0 | 3.0 | 0.00 | 0.00 | 0.00 | 71 | 1012.7 |
| 20260507214025 | 60 | 27 | 1.0 | 3.0 | 0.00 | 0.00 | 0.00 | 70 | 1012.5 |
| 20260507213526 | 60 | 17 | 1.0 | 5.0 | 0.00 | 0.00 | 0.00 | 69 | 1012.4 |
| 20260507213028 | 60 | 11 | 1.0 | 5.0 | 0.00 | 0.00 | 0.00 | 69 | 1012.5 |
| 20260507212525 | 60 | 27 | 1.0 | 6.0 | 0.00 | 0.00 | 0.00 | 69 | 1012.4 |
| 20260507212027 | 60 | 12 | 2.0 | 6.0 | 0.00 | 0.00 | 0.00 | 69 | 1012.5 |
| 20260507211525 | 60 | 360 | 4.0 | 9.0 | 0.00 | 0.00 | 0.00 | 70 | 1012.5 |
| 20260507211025 | 60 | 5 | 5.0 | 10.0 | 0.00 | 0.00 | 0.00 | 70 | 1012.3 |
| 20260507210525 | 60 | 13 | 6.0 | 10.0 | 0.00 | 0.00 | 0.00 | 70 | 1012.3 |
| 20260507210028 | 60 | 360 | 6.0 | 9.0 | 0.00 | 0.00 | 0.00 | 69 | 1012.4 |
| 20260507205527 | 60 | 11 | 5.0 | 9.0 | 0.00 | 0.00 | 0.00 | 68 | 1012.3 |
| 20260507205023 | 60 | 13 | 6.0 | 9.0 | 0.00 | 0.00 | 0.00 | 69 | 1012.2 |
| 20260507204524 | 60 | 9 | 6.0 | 9.0 | 0.00 | 0.00 | 0.00 | 69 | 1012.1 |
| 20260507204024 | 60 | 15 | 5.0 | 10.0 | 0.00 | 0.00 | 0.00 | 69 | 1012.1 |
| 20260507203528 | 61 | 5 | 6.0 | 10.0 | 0.00 | 0.00 | 0.00 | 69 | 1012.1 |
| 20260507203025 | 61 | 355 | 6.0 | 10.0 | 0.00 | 0.00 | 0.00 | 68 | 1012.0 |
| 20260507202523 | 61 | 13 | 6.0 | 9.0 | 0.00 | 0.00 | 0.00 | 69 | 1011.9 |
| 20260507202022 | 61 | 28 | 6.0 | 9.0 | 0.00 | 0.00 | 0.00 | 68 | 1011.9 |
| 20260507201522 | 60 | 5 | 6.0 | 9.0 | 0.00 | 0.00 | 0.00 | 69 | 1011.8 |
| 20260507201026 | 60 | 14 | 5.0 | 8.0 | 0.00 | 0.00 | 0.00 | 69 | 1011.9 |
| 20260507200522 | 60 | 18 | 4.0 | 5.0 | 0.00 | 0.00 | 0.00 | 70 | 1011.9 |
| 20260507200022 | 60 | 5 | 4.0 | 6.0 | 0.00 | 0.00 | 0.00 | 70 | 1011.7 |
| 20260507195522 | 60 | 5 | 3.0 | 9.0 | 0.00 | 0.00 | 0.00 | 71 | 1011.7 |
| 20260507195021 | 60 | 355 | 5.0 | 9.0 | 0.00 | 0.00 | 0.00 | 71 | 1011.5 |
| 20260507194522 | 60 | 360 | 5.0 | 10.0 | 0.00 | 0.00 | 0.00 | 71 | 1011.5 |
| 20260507194021 | 60 | 355 | 5.0 | 10.0 | 0.00 | 0.00 | 0.00 | 72 | 1011.5 |
| 20260507193525 | 61 | 5 | 5.0 | 8.0 | 0.00 | 0.00 | 0.00 | 73 | 1011.5 |
| 20260507193021 | 61 | 21 | 5.0 | 8.0 | 0.00 | 0.00 | 0.00 | 74 | 1011.5 |
| 20260507192520 | 61 | 5 | 3.0 | 6.0 | 0.00 | 0.00 | 0.00 | 74 | 1011.5 |
| 20260507192021 | 61 | 355 | 4.0 | 8.0 | 0.00 | 0.00 | 0.00 | 75 | 1011.4 |
| 20260507191521 | 61 | 344 | 5.0 | 8.0 | 0.00 | 0.00 | 0.00 | 76 | 1011.5 |
| 20260507191021 | 62 | 360 | 2.0 | 5.0 | 0.00 | 0.00 | 0.00 | 77 | 1011.3 |
| 20260507190521 | 62 | 15 | 1.0 | 4.0 | 0.00 | 0.00 | 0.00 | 77 | 1011.4 |
| 20260507190020 | 62 | 123 | 0.0 | 0.0 | 0.00 | 0.00 | 0.00 | 77 | 1011.4 |
| 20260507185521 | 62 | 123 | 0.0 | 0.0 | 0.00 | 0.00 | 0.00 | 77 | 1011.3 |
| 20260507185019 | 62 | 123 | 0.0 | 0.0 | 0.00 | 0.00 | 0.00 | 77 | 1011.2 |
| 20260507184519 | 62 | 123 | 0.0 | 2.0 | 0.00 | 0.00 | 0.00 | 77 | 1011.1 |
| 20260507184018 | 62 | 123 | 0.0 | 2.0 | 0.00 | 0.00 | 0.00 | 76 | 1011.1 |
| 20260507183518 | 62 | 123 | 0.0 | 2.0 | 0.00 | 0.00 | 0.00 | 76 | 1011.1 |
| 20260507183019 | 62 | 123 | 1.0 | 3.0 | 0.00 | 0.00 | 0.00 | 76 | 1011.1 |
| 20260507182519 | 63 | 123 | 2.0 | 4.0 | 0.00 | 0.00 | 0.00 | 75 | 1011.0 |
| 20260507182021 | 63 | 123 | 2.0 | 4.0 | 0.00 | 0.00 | 0.00 | 74 | 1011.0 |
| 20260507181521 | 63 | 123 | 1.0 | 6.0 | 0.00 | 0.00 | 0.00 | 73 | 1010.8 |
| 20260507181019 | 63 | 117 | 3.0 | 6.0 | 0.00 | 0.00 | 0.00 | 72 | 1010.8 |
| 20260507180518 | 63 | 132 | 2.0 | 5.0 | 0.00 | 0.00 | 0.00 | 71 | 1010.7 |
| 20260507180017 | 64 | 134 | 1.0 | 5.0 | 0.00 | 0.00 | 0.00 | 70 | 1010.6 |
| 20260507175519 | 64 | 126 | 1.0 | 4.0 | 0.00 | 0.00 | 0.00 | 71 | 1010.6 |
| 20260507175016 | 64 | 124 | 2.0 | 4.0 | 0.00 | 0.00 | 0.00 | 70 | 1010.7 |
| 20260507174517 | 65 | 124 | 1.0 | 4.0 | 0.00 | 0.00 | 0.00 | 69 | 1010.5 |
| 20260507174016 | 65 | 130 | 2.0 | 5.0 | 0.00 | 0.00 | 0.00 | 71 | 1010.6 |
| 20260507173516 | 65 | 138 | 2.0 | 5.0 | 0.00 | 0.00 | 0.00 | 72 | 1010.6 |
| 20260507173027 | 65 | 136 | 3.0 | 6.0 | 0.00 | 0.00 | 0.00 | 71 | 1010.6 |
| 20260507172516 | 65 | 126 | 3.0 | 8.0 | 0.00 | 0.00 | 0.00 | 71 | 1010.6 |
| 20260507172021 | 65 | 128 | 4.0 | 8.0 | 0.00 | 0.00 | 0.00 | 71 | 1010.7 |
| 20260507171516 | 65 | 136 | 3.0 | 7.0 | 0.00 | 0.00 | 0.00 | 71 | 1010.6 |
| 20260507171016 | 65 | 126 | 2.0 | 7.0 | 0.00 | 0.00 | 0.00 | 71 | 1010.6 |
| 20260507170517 | 65 | 126 | 3.0 | 8.0 | 0.00 | 0.00 | 0.00 | 71 | 1010.6 |
| 20260507170016 | 65 | 117 | 5.0 | 8.0 | 0.00 | 0.00 | 0.00 | 70 | 1010.5 |
| 20260507165515 | 65 | 135 | 5.0 | 8.0 | 0.00 | 0.00 | 0.00 | 68 | 1010.5 |
| 20260507165015 | 65 | 125 | 4.0 | 9.0 | 0.00 | 0.00 | 0.00 | 67 | 1010.3 |
| 20260507164515 | 65 | 134 | 4.0 | 10.0 | 0.00 | 0.00 | 0.00 | 67 | 1010.3 |
| 20260507164015 | 66 | 143 | 5.0 | 10.0 | 0.00 | 0.00 | 0.00 | 67 | 1010.2 |
| 20260507163515 | 66 | 123 | 5.0 | 9.0 | 0.00 | 0.00 | 0.00 | 69 | 1010.1 |
| 20260507163014 | 66 | 121 | 6.0 | 9.0 | 0.00 | 0.00 | 0.00 | 68 | 1010.2 |
| 20260507162514 | 66 | 119 | 5.0 | 9.0 | 0.00 | 0.00 | 0.00 | 69 | 1010.1 |
| 20260507162014 | 66 | 105 | 6.0 | 10.0 | 0.00 | 0.00 | 0.00 | 68 | 1010.1 |
| 20260507161521 | 66 | 111 | 5.0 | 10.0 | 0.00 | 0.00 | 0.00 | 68 | 1010.1 |
| 20260507161014 | 66 | 119 | 7.0 | 10.0 | 0.00 | 0.00 | 0.00 | 67 | 1010.1 |
| 20260507160514 | 66 | 108 | 6.0 | 11.0 | 0.00 | 0.00 | 0.00 | 66 | 1010.2 |
| 20260507160018 | 66 | 130 | 6.0 | 12.0 | 0.00 | 0.00 | 0.00 | 65 | 1010.2 |
| 20260507155514 | 67 | 127 | 6.0 | 11.0 | 0.00 | 0.00 | 0.00 | 65 | 1010.3 |
| 20260507155013 | 67 | 117 | 7.0 | 10.0 | 0.00 | 0.00 | 0.00 | 65 | 1010.2 |
| 20260507154518 | 67 | 117 | 3.0 | 11.0 | 0.00 | 0.00 | 0.00 | 65 | 1010.2 |
| 20260507154012 | 67 | 106 | 6.0 | 12.0 | 0.00 | 0.00 | 0.00 | 65 | 1010.3 |